Погода в Мозыре

Погода в Мозыре : погода сейчас, прогноз погоды и архив. Всё, что Вы хотите узнать о погоде в Мозыре!

Хотите узнать прогноз погоды в Мозыре? Тогда Вам сюда: Погода в Мозыре

Поиск расширенной информации на нашем сайте:

Другие новости

Новости СМИ2

Главная страница сайта

Новости сайта

03.07.2017

Напоминаем, что на нашем специализированном сайте Метеоцентр.Азия вы можете получить высокодетализированные автоматические прогнозы погоды по пунктам России, СНГ и мира в авиационном формате (включающие направление и скорость ветра, видимость, явления погоды, количество и форму облачности, нижнюю и верхнюю границу облачности).


Погода в Мозыре - сегодня

Время (UTC), дата Ветер
(°,м/с) 
Видим.   Явления Облачность Т
(°С)
Тd
(°С)
f(%) Тe
(°С)
Pmin
(гПа)
dP
(гПа)
Po
(мм)
O2
(г/м3)
Тmin Tmax R s Состояние
почвы
00 19.09.17 240 (ЮЗ) 10 км    ясно 
+10.7 +7.6 81 +12  1015.2  744  287           
03 19.09.17 тихо ()   8000 м  дымка  ясно 
+8.6 +7.1 90 +9  1016.6  1.3  745  290           
06 19.09.17 300 (СЗ) 20000 м    3/0 верхняя 
[Ci fib]
+10.9 +7.4 79 +12  1018.2  1.7  747  288  +8.4         
09 19.09.17 200 (Ю) 20000 м    8/0 средняя, верхняя 
[Ac trans|Cs]
+16.5 +6.8 53 +18  1018.6  0.9  747  283           
12 19.09.17 250 (З) 20000 м    8/4 1000 м средняя, верхняя 
[Cu hum|Ac trans|Ci fib]
+17.6 +7.3 51 +19  1018.6  0.1  747  282           
15 19.09.17 тихо ()   17000 м    9/0 средняя, верхняя 
[Ac As|Cs]
+16.5 +10 65 +18  1018.4  -0.3  747  282           
18 19.09.17 тихо ()   10 км    10/0 средняя 
[Ac As]
+13.9 +8.5 70 +14  1019.3  0.7  748  285    +19.2       
21 19.09.17 100 (В) 10 км    9/0 средняя 
[Ac und]
+14.3 +7 61 +15  1019  -0.3  747  285           
00 20.09.17 120 (ЮВ) 10 км    8/0 средняя 
[Ac und]
+12.9 +8.1 73 +13  1018.9  -0.2  747  286           
03 20.09.17 120 (ЮВ) 10 км  {дождь}  10/0 средняя 
[Ac As]
+12.1 +9.3 83 +12  1018.8  -0.1  747  287      0.5     
06 20.09.17 100 (В) 10 км  {дождь}  10/0 средняя 
[Ac As]
+11.9 +9.5 85 +13  1018.3  -0.6  747  287  +11.6    0.9     
09 20.09.17 130 (ЮВ) 20000 м    8/0 средняя, верхняя 
[Ac und|Ci sp]
+15.7 +9.3 66 +16  1017.7  -0.3  747  283           
12 20.09.17 090 (В) 20000 м    8/0 средняя 
[Ac und]
+17.4 +9.7 61 +19  1016.2  -1.3  746  281           
15 20.09.17 100 (В) 2{10}  20000 м    10/0 средняя 
[Ac As]
+16.4 +8.8 61 +17  1016  -0.3  745  282           
18 20.09.17 060 (СВ) 10 км    9/0 средняя 
[Ac und]
+12.8 +9.4 80 +14  1016.4  0.1  745  285    +18.4       
21 20.09.17 070 (В) 8000 м  дымка{ливн. осадки}  10/0 средняя 
[Ac As]
+11.8 +10.4 91 +14  1014.9  -1.5  744  286      0.8     
00 21.09.17 060 (СВ) 8000 м  дымка{ливн. осадки}  ясно 
+11.6 +10.4 92 +14  1013.9  -1  744  285           
03 21.09.17 060 (СВ) 6000 м  гроза без осадков{ливн. осадки}  10/6 600 м кучево-дожд., средняя 
[Cb calv|Ac As]
+11.5 +10.7 95 +13  1013  -0.9  743  285         
06 21.09.17 070 (В) 3{10}  15000 м  {гроза, ливн. осадки}  8/0 средняя, верхняя 
[Ac trans|Ci fib]
+13.3 +11 86 +16  1011.6  -1.2  742  283  +11.4       
09 21.09.17 110 (В) 5{11}  20000 м    9/0 средняя 
[Ac und]
+16.6 +11.7 73 +20  1011.4  742  280           
12 21.09.17 130 (ЮВ) 20000 м    8/3 600 м средняя, верхняя 
[Cu med, cong|Ac cast|Ci fib]
+20.6 +13 62 +26  1010.5  -0.6  742  275           
15 21.09.17 140 (ЮВ) 20000 м    8/0 средняя, верхняя 
[Ac trans|Ci]
+20.2 +13.8 67 +27  1011.2  0.7  742  276           
18 21.09.17 050 (СВ) 10 км    ясно 
+16.8 +13.8 82 +25  1010  -1.4  741  278    +21.4       
21 21.09.17 090 (В) 10 км    8/0 средняя 
[Ac und]
+19.2 +13.6 70 +27  1010.4  0.5  741  276           
00 22.09.17 080 (В) 10 км    5/0 средняя 
[Ac trans]
+17.8 +13 73 +25  1011.3  0.8  742  278           
Время (UTC), дата Ветер
(°,м/с) 
Видим.   Явления Облачность Т
(°С)
Тd
(°С)
f(%) Тe
(°С)
Pmin
(гПа)
dP
(гПа)
Po
(мм)
O2
(г/м3)
Тmin Tmax R s Состояние
почвы

Для получения пояснительной информации подведите курсор к названию столбца.

ПОГОДА в Мозыре - архив

Всё, что Вы хотите узнать о погоде в Мозыре - удобно и подробно!

Выберите нужную дату (начиная с 1 января 2015* года) и нажмите кнопку "Найти".
Будут отображены архивные сводки погоды по пункту Мозырь, начиная с указанной даты.


Отображать данные в формате CSV (для использования в таблицах Excel)


Внимание! Наш архив погоды предназначен исключительно для личного некоммерческого использования в познавательных целях. Если Вам необходимы официальные справки о состоянии погоды (для производственных, юридических, коммерческих и т.п. целей), обращайтесь в органы Росгидромета.

*Примечание: данная дата относится к архиву по метеостанциям СССР (Россия, СНГ, Балтия).
Архив по метеостанциям Зарубежной Европы и Азии (кроме Китая) хранится 10 дней, по другим регионам земного шара (Китай, Африка, Америка, Австралия, Океания) - 1 день.

Мозырь - район местоположения метеостанции


Название, широта, долгота, высота метеостанции:
Мозырь 51.9°ш. 29.2°д. 170 м над ур. моря [Беларусь]

Дополнительная информация

В oтличие oт бoльшинства пoгoдных сайтoв мы публикуем пoдрoбную метеoинфoрмацию в детальнoм прoфессиoнальнoм фoрмате.

Характеристики температуры и влажнoсти вoздуха измеряются на высoте 2 м в тени вдали oт зданий и деревьев.
Скoрoсть ветра измеряется на высoте 10 м (на урoвне рoста челoвека скoрoсть ветра ниже в 1.5-2 раза). Если метеoстанция нахoдится в гoрoде или в лесу, тo скoрoсть ветра занижена на 2-4 м/с пo сравнению с oткрытым местoм. Скoрoсть ветра над акватoриями крупных рек и oзёр, а также на вершинах хoлмoв на 2-5 м/с выше, чем в oбычных услoвиях.
Атмoсфернoе давление в разных тoчках местнoсти мoжет значительнo oтличаться oт давления на метеoстанции, в зависимoсти oт услoвий рельефа (при пoдъёме на 10 м давление пoнижается примернo на 1 мм рт.ст.).